Regional Weather Roundup
Issued by NWS

Home | Current Version | Previous Version | Text Only | Print | Product List | Glossary Off
Versions: 1 2 3 4 5 6 7 8 9 10 11 12 13 14 15 16 17 18 19 20 21 22 23 24 25 26 27 28 29 30 31 32 33 34 35 36 37 38 39 40 41 42 43 44 45 46 47 48 49 50

000
ASUS43 KBIS 250420
RWRND

NORTH DAKOTA REGIONAL WEATHER ROUNDUP
NATIONAL WEATHER SERVICE BISMARCK ND
1100 PM CDT THU JUL 24 2014

NOTE: "FAIR" INDICATES FEW OR NO CLOUDS BELOW 12,000 FEET WITH NO
SIGNIFICANT WEATHER AND/OR OBSTRUCTIONS TO VISIBILITY.


NDZ001>003-009>011-017-250500-
NORTHWEST NORTH DAKOTA

CITY           SKY/WX    TMP DP  RH WIND       PRES   REMARKS
WILLISTON      CLOUDY    66  61  84 NE10      29.78S
MINOT          LGT RAIN  70  66  87 CALM      29.77R
MINOT AFB      LGT RAIN  72  72 100 E8        29.76S
$$

NDZ018>021-031>035-040>046-250500-
SOUTHWEST NORTH DAKOTA

CITY           SKY/WX    TMP DP  RH WIND       PRES   REMARKS
BISMARCK       CLOUDY    72  64  76 E6        29.72S
DICKINSON      CLOUDY    70  66  87 N5        29.72S
GARRISON         N/A     70  67  90 E8        29.73F
HETTINGER ARPT MOCLDY    71  64  78 E3        29.70F
$$

NDZ004>008-012>016-024-026-027-054-250500-
NORTHEAST NORTH DAKOTA

CITY           SKY/WX    TMP DP  RH WIND       PRES   REMARKS
GRAND FORKS    MOCLDY    69  62  78 SE6       29.81R
GRND FRKS AFB  CLOUDY    69  65  88 E6        29.81R
DEVILS LAKE    PTCLDY    68  61  77 SE13      29.77F
$$

NDZ022-023-025-028>030-036>039-047>053-250500-
SOUTHEAST NORTH DAKOTA

CITY           SKY/WX    TMP DP  RH WIND       PRES   REMARKS
FARGO          CLOUDY    71  62  73 SE9       29.80R
JAMESTOWN      MOCLDY    69  63  81 S16G25    29.71S
$$




USA.gov is the U.S. government's official web portal to all federal, state and local government web resources and services.